Location: Fort Wayne
(41.1310°N, 85.1290°W)
Time: 14:23:54
(UTC-04:00)

Cosmos 2056 Rocket - Visible Passes

Search period start: 02 August 2015 00:00
Search period end: 12 August 2015 00:00
Orbit: 744 x 801 km, 74.0° (Epoch: 02 August)

Date Brightness Start Highest point End Pass type
(mag) Time Alt. Az. Time Alt. Az. Time Alt. Az.
02 Aug 4.4 02:52:09 10° N 02:57:01 42° ENE 02:57:51 39° E visible
02 Aug 4.8 04:34:57 10° NW 04:38:09 22° W 04:38:09 22° W visible
03 Aug 5.1 02:16:44 10° N 02:20:58 26° ENE 02:21:58 25° ENE visible
03 Aug 4.3 03:58:32 10° NW 04:02:16 34° WNW 04:02:16 34° WNW visible
04 Aug 5.7 01:41:39 10° NNE 01:44:48 17° NE 01:46:09 15° ENE visible
04 Aug 3.9 03:22:27 10° NNW 03:26:28 51° NW 03:26:28 51° NW visible
05 Aug 6.1 01:07:53 10° NE 01:08:31 10° NE 01:09:26 10° ENE visible
05 Aug 3.9 02:46:34 10° NNW 02:50:44 57° N 02:50:44 57° N visible
06 Aug 4.5 02:10:54 10° N 02:15:03 42° NE 02:15:03 42° NE visible
06 Aug 5.4 03:53:51 10° NW 03:55:22 16° WNW 03:55:22 16° WNW visible
07 Aug 5.1 01:35:26 10° N 01:39:25 28° NE 01:39:25 28° NE visible
07 Aug 5.1 03:17:22 10° NW 03:19:44 24° NW 03:19:44 24° NW visible
08 Aug 5.5 01:00:16 10° NNE 01:03:39 18° NE 01:03:50 18° ENE visible
08 Aug 4.7 02:41:15 10° NNW 02:44:09 33° NW 02:44:09 33° NW visible
09 Aug 5.9 00:26:01 10° NE 00:27:22 11° NE 00:28:17 11° ENE visible
09 Aug 4.6 02:05:21 10° NNW 02:08:37 40° NNW 02:08:37 40° NNW visible
10 Aug 4.7 01:29:39 10° N 01:33:06 37° NNE 01:33:06 37° NNE visible
10 Aug 5.8 03:12:46 10° NW 03:13:25 12° WNW 03:13:25 12° WNW visible
11 Aug 5.1 00:54:08 10° N 00:57:38 28° NE 00:57:38 28° NE visible
11 Aug 5.5 02:36:13 10° NW 02:37:57 19° NW 02:37:57 19° NW visible
